Location: Brusselsch Zeekanaal
(50.8667°N, 4.3667°E)
Time: 23:35:21
(UTC+00:00)

Meteor 1-24 Rocket - Pass Details

Date: 08 November 2025
Orbit: 788 x 926 km, 81.3° (Epoch: 04 December)

Event Time Altitude Azimuth Distance (km) Brightness Sun altitude
Rises 05:25:25 0° 211° (SSW) 3,486 6.7 -13.0°
Reaches altitude 10° 05:28:00 10° 217° (SW) 2,531 5.9 -12.6°
Maximum altitude 05:33:29 45° 289° (WNW) 1,157 4.0 -11.7°
Drops below altitude 10° 05:38:50 10° 2° (N) 2,457 6.0 -10.9°
Sets 05:41:20 0° 9° (N) 3,375 6.8 -10.5°
